Torna al catalogo

THORAD DELTA 1 DEB

AttivoSSO
NORAD 8140·DEBRIS·🇺🇸 United States

Lanciato Nov 15, 1974 da Vandenberg Space Force Base

Loading…

Prossimi Passaggi (prossime 24 ore)

TLE

AggiornatoSource: Space-Track

Epoca: Sep 14, 2026, 19:42 UTC

1 08140U 74089J   26257.82152638 -.00000021  00000-0  17190-3 0  9993
2 08140 102.0503 216.7486 0043733  38.4774 348.6472 12.46738761358659

Traccia THORAD DELTA 1 DEB in tempo reale con AllMySat

Download on the App Store